Location: Krasnoyarskiy Pitomnik
(51.1333°N, 71.6167°E)
Time: 21:29:23
(UTC+00:00)

A-11 Canister half - Pass Details

Date: 24 April 2024
Orbit: 1525 x 1683 km, 47.3° (Epoch: 19 May)

Event Time Altitude Azimuth Distance (km) Brightness Sun altitude
Rises 03:17:47 0° 267° (W) 4,903 11.1 29.7°
Reaches altitude 10° 03:20:55 10° 266° (W) 3,928 10.7 30.1°
Maximum altitude 03:30:59 72° 185° (S) 1,756 9.9 31.6°
Drops below altitude 10° 03:41:03 10° 104° (ESE) 3,933 12.6 33.1°
Sets 03:44:12 0° 102° (ESE) 4,909 12.7 33.6°
